This demonstration page uses our WeatherBlox Daily Observations layout. Learn more.

Left ArrowRight Arrow

39.01783, -85.05884

Hourly Observations for October 19, 2021

Temp ( °F °C ) Dew Point ( °F °C ) Humidity (%) Winds ( mph kmh ) Pressure ( in mb ) Visibility ( mi km ) Precip ( " mm )
12:52 am 00:52 Clear 47 8.3 44 6.7 90 90 SSW 3 6 30.15 1021 10 16 N/A
1:52 am 01:52 Clear 49 9.4 44 6.7 83 83 N N/A 30.15 1021 10 16 N/A
2:52 am 02:52 Clear 47 8.3 44 6.7 90 90 N N/A 30.16 1021 10 16 N/A
3:52 am 03:52 Clear 47 8.3 44 6.7 90 90 N N/A 30.16 1021 10 16 N/A
4:52 am 04:52 Clear 46 7.8 43 6.1 89 89 S 3 6 30.16 1021 10 16 N/A
5:52 am 05:52 Clear 46 7.8 42 5.6 86 86 N N/A 30.18 1022 10 16 N/A
6:52 am 06:52 Clear 44 6.7 41 5 89 89 N N/A 30.20 1023 10 16 N/A
7:52 am 07:52 Clear 47 8.3 43 6.1 86 86 S 3 6 30.21 1023 10 16 N/A
8:52 am 08:52 Sunny 48 8.9 45 7.2 89 89 S 3 6 30.22 1023 10 16 N/A
9:52 am 09:52 Sunny 56 13.3 49 9.4 77 77 S 3 6 30.23 1024 10 16 N/A
10:52 am 10:52 Sunny 62 16.7 47 8.3 58 58 WSW 6 9 30.23 1024 10 16 N/A
11:52 am 11:52 Sunny 66 18.9 45 7.2 47 47 SW 7 11 30.23 1024 10 16 N/A
12:52 pm 12:52 Sunny 68 20 45 7.2 44 44 SW 8 13 30.22 1023 10 16 N/A
1:52 pm 13:52 Mostly Sunny 69 20.6 45 7.2 42 42 S 7 11 30.19 1022 10 16 N/A
2:52 pm 14:52 Mostly Sunny 69 20.6 44 6.7 41 41 S 10 17 30.16 1021 10 16 N/A
3:52 pm 15:52 Mostly Cloudy 69 20.6 43 6.1 39 39 SW 7 11 30.15 1021 10 16 N/A
4:52 pm 16:52 Mostly Cloudy 68 20 46 7.8 45 45 SSW 7 11 30.14 1021 10 16 N/A
5:52 pm 17:52 Mostly Cloudy 65 18.3 46 7.8 51 51 SSW 5 7 30.14 1021 10 16 N/A
6:52 pm 18:52 Cloudy 63 17.2 46 7.8 54 54 SSW 6 9 30.14 1021 10 16 N/A
7:52 pm 19:52 Mostly Cloudy 60 15.6 46 7.8 60 60 SSW 5 7 30.16 1021 10 16 N/A
8:52 pm 20:52 Partly Cloudy 58 14.4 46 7.8 65 65 SSW 3 6 30.16 1021 10 16 N/A
9:52 pm 21:52 Mostly Clear 57 13.9 46 7.8 67 67 N N/A 30.16 1021 10 16 N/A
10:52 pm 22:52 Mostly Clear 56 13.3 46 7.8 70 70 S 5 7 30.15 1021 10 16 N/A
11:52 pm 23:52 Mostly Clear 55 12.8 45 7.2 69 69 N N/A 30.16 1021 10 16 N/A

Powered by AerisWeather